Home   Weather   Brumunddal   Past weeks

Flag for Norway Past Weather in Brumunddal, Norway — Yesterday and Last 2 Weeks

Now
47 °F

Cool.


Feels Like: 47 °F
Forecast: 45 / 57 °F
Wind: 2 mph from Southeast

Location: Lillehammer-Saetherengen

Current Time: Sep 29, 2016 at 10:31:17 AM

Latest Report: Sep 29, 2016 at 9:00 AM


Visibility: N/A

Pressure: 29.18 "Hg

Humidity: 92%

Dew Point: 45 °F

Location of BrumunddalLocation

Past Weather in Brumunddal — Graph

°F

Brumunddal Temperature Yesterday

Maximum temperature yesterday: 63 °F (at 3:00 PM)
Minimum temperature yesterday: 48 °F (at 11:00 PM)
Average temperature yesterday: 54 °F

High & Low Weather Summary for the Past Weeks

 TemperatureHumidityPressure
High68 °F (Sep 15, 2:00 PM)96% (Sep 16, 6:00 PM)30.24 "Hg (Sep 16, 6:00 PM)
Low44 °F (Sep 24, 8:00 AM)40% (Sep 28, 3:00 PM)29.18 "Hg (Sep 29, 9:00 AM)
Average55 °F86%30.04 "Hg
* Reported Sep 14 9:00 AM — Sep 29 9:00 AM, Brumunddal, Weather by CustomWeather, © 2016

Note: Actual official high and low records may vary slightly from our data, if they occured in-between our weather recording intervals... More about our weather records

Advertising

Brumunddal Weather History for the Previous 24 Hours

Scroll right to see more
 ConditionsComfort  
Time TempWeatherWind HumidityBarometerVisibility
9:00 AM
Thu, Sep 29
47 °FCool.2 mph92%29.18 "HgN/A
8:00 AM46 °FCool.3 mph88%29.21 "HgN/A
7:00 AM47 °FCool.3 mph82%29.26 "HgN/A
6:00 AM46 °FCool.5 mph83%29.35 "HgN/A
5:00 AM47 °FCool.2 mph74%29.41 "HgN/A
4:00 AM49 °FCool.3 mph66%29.47 "HgN/A
3:00 AM47 °FCool.2 mph72%29.50 "HgN/A
2:00 AM47 °FCool.1 mph76%29.54 "HgN/A
1:00 AM46 °FCool.1 mph77%29.57 "HgN/A
12:00 AM48 °FCool.1 mph72%29.58 "HgN/A
11:00 PM
Wed, Sep 28
48 °FCool.2 mph79%29.60 "HgN/A
10:00 PM48 °FCool.1 mph76%29.61 "HgN/A
9:00 PM50 °FCool.1 mph70%29.58 "HgN/A
8:00 PM52 °FCool.2 mph65%29.58 "HgN/A
7:00 PM54 °FCool.1 mph62%29.55 "HgN/A
6:00 PM59 °FRefreshingly cool.2 mph46%29.50 "HgN/A
5:00 PM61 °FRefreshingly cool.5 mph44%29.47 "HgN/A
4:00 PM62 °FRefreshingly cool.6 mph42%29.44 "HgN/A
3:00 PM63 °FMild.6 mph40%29.44 "HgN/A
2:00 PM62 °FRefreshingly cool.2 mph49%29.44 "HgN/A
1:00 PM58 °FRefreshingly cool.2 mph56%29.44 "HgN/A
12:00 PM57 °FCool.3 mph61%29.44 "HgN/A
11:00 AM56 °FCool.2 mph68%29.44 "HgN/A
10:00 AM53 °FCool.2 mph72%29.44 "HgN/A
Weather by CustomWeather, © 2016

See weather overviewHow to use our weather pages